Home > Time Zones > World Clock > Weather > Germany > Ulm > Past weeks

Flag for Germany Weather past 2 weeks in Ulm, Baden-Württemberg, Germany

Now
70 °F

Mild.


Feels Like: 70 °F
Forecast: 55 / 65 °F
Wind: 8 mph from West

Location: Laupheim Airport

Current Time: Sep 20, 2014 at 8:00:30 PM

Latest Report: Sep 20, 2014 at 3:20 PM


Visibility: 4 mi

Pressure: 30.01 "Hg

Humidity: 73%

Dew point: 61 °F

Location of UlmLocation

Historic Weather in Ulm — Graph

°F

Ulm temperature yesterday

Maximum temperature yesterday: 75 °F (at 2:45 PM)
Minimum temperature yesterday: 54 °F (at 3:20 AM)
Average temperature yesterday: 63 °F

Past Weeks' High & Low Weather Summary

 TemperatureHumidityPressure
High77 °F (Sep 8, 2:20 PM)100% (Sep 5, 9:20 PM)30.15 "Hg (Sep 5, 9:20 PM)
Low46 °F (Sep 11, 6:20 AM)50% (Sep 7, 3:20 PM)29.92 "Hg (Sep 6, 3:20 PM)
Average60 °F87%30.01 "Hg
* Reported Sep 5 2:20 PM — Sep 20 2:20 PM, Ulm, Weather by CustomWeather, © 2014

Note: Actual official high and low records may vary slightly from our data, if they occured in-between our weather recording intervals... More about our weather records

Advertising

Ulm weather history for previous 24 hours

 ConditionsComfort  
Time TempWeatherWind HumidityBarometerVisibility
2:20 PM
Sep 20
68 °FMild.10 mph78%30.04 "Hg4 mi
1:20 PM66 °FMild.9 mph78%30.04 "Hg4 mi
12:20 PM66 °FMild.10 mph83%30.04 "Hg4 mi
11:20 AM64 °FMild.8 mph83%30.04 "Hg4 mi
10:20 AM63 °FMild.7 mph88%30.04 "Hg3 mi
9:20 AM61 °FCool.3 mph94%30.04 "Hg3 mi
8:20 AM59 °FCool.3 mph100%30.04 "Hg3 mi
7:20 AM59 °FCool.3 mph94%30.01 "Hg2 mi
6:20 AM59 °FCool.2 mph100%30.01 "Hg2 mi
5:20 AM61 °FCool.7 mph94%30.04 "Hg2 mi
4:20 AM59 °FCool.5 mph100%30.01 "Hg2 mi
3:20 AM59 °FCool.3 mph94%30.01 "Hg3 mi
2:20 AM59 °FCool.No wind100%30.01 "Hg2 mi
1:20 AM61 °FCool.7 mph94%30.04 "Hg2 mi
12:20 AM61 °FCool.1 mph94%30.04 "Hg2 mi
11:20 PM
Sep 19
59 °FCool.1 mph100%30.04 "Hg2 mi
10:20 PM61 °FCool.2 mph94%30.01 "Hg2 mi
9:20 PM63 °FMild.3 mph88%30.01 "Hg2 mi
8:20 PM64 °FMild.2 mph88%30.01 "Hg2 mi
Weather by CustomWeather, © 2014

See weather overviewHow to use our weather pages